EHI
0 0 0 0 0 0 0 0 0 0 0 0 1 2 2 1 1 1 0 0 0 0 0 0 0 0 0 0 0 0 0 0 0 0 0 0 0 0 0 0 0 0 0 0
0 0 0 0 0 0 0 0 1 1 0 0 0 1 1 0 1 1 0 0 0 0 0 0 0 0 0 0 0 0 0 0 0 0 0 0 0 0 0 0 0 0 0 0
0 0 0 0 0 0 0 0 1 1 0 0 0 0 0 0 0 1 0 0 0 0 0 0 0 0 0 0 0 0 0 0 0 0 0 0 0 0 0 0 0 0 0 0
0 0 0 0 0 0 0 0 1 1 0 0 0 0 0 0 0 1 0 0 0 0 0 0 0 0 0 0 0 0 0 0 0 0 0 0 0 0 0 0 0 0 0 0
0 0 0 0 0 0 0 0 0 0 0 0 0 0 0 0 1 1 1 0 0 0 0 0 0 0 0 0 0 0 0 0 0 0 0 0 0 0 0 0 0 0 0 0
0 0 0 0 0 0 0 0 0 0 0 0 0 0 0 0 1 2 1 0 0 0 0 0 0 0 0 0 0 0 0 0 0 0 0 0 0 0 0 0 0 0 0 0
0 0 0 0 0 0 0 0 0 0 0 0 0 0 0 0 0 1 1 0 0 0 0 0 0 0 0 0 0 0 0 0 0 0 0 0 0 0 0 0 0 0 0 0
0 0 0 0 0 0 0 0 0 0 0 0 0 0 0 0 0 0 0 0 0 0 0 0 0 0 0 0 0 0 0 0 0 0 0 0 0 0 0 0 0 0 0 0
0 0 0 0 0 0 0 0 0 0 0 0 0 0 0 0 0 0 0 0 0 0 0 0 0 0 0 0 0 0 0 0 0 0 0 0 0 0 0 0 0 0 0 0
0 0 0 0 0 0 0 0 0 0 0 0 0 0 0 0 0 0 0 0 0 0 0 0 0 0 0 0 0 0 0 0 0 0 0 0 0 0 0 0 0 0 0 0
0 0 0 0 0 0 0 0 0 0 0 0 0 0 0 0 0 0 0 0 0 0 0 0 0 0 0 0 0 0 0 0 0 0 0 0 0 0 0 0 0 0 0 0
0 0 0 0 0 0 0 0 0 0 0 0 0 0 0 0 0 0 0 0 0 0 0 0 0 0 0 0 0 0 0 0 0 0 0 0 0 0 0 0 0 0 0 0
0 0 0 0 0 0 0 0 0 0 0 0 0 0 0 0 0 0 0 0 0 0 0 0 0 0 0 0 0 0 0 0 0 0 0 0 0 0 0 0 0 0 0 0
0 0 0 0 0 0 0 0 0 0 0 0 0 0 0 0 0 0 0 0 0 0 0 0 0 0 0 0 0 0 0 0 0 0 0 0 0 0 0 0 0 0 0 0
0 0 0 0 0 0 0 0 0 0 0 0 0 0 0 0 0 0 0 0 0 0 0 0 0 0 0 0 0 0 0 0 0 0 0 0 0 0 0 0 0 0 0 0
0 0 0 0 0 0 0 0 0 0 0 0 0 0 0 0 0 0 0 0 0 0 0 0 0 0 0 0 0 0 0 0 0 0 0 0 0 0 0 0 0 0 0 0
0 0 0 0 0 0 0 0 0 0 0 0 0 0 0 0 0 0 0 0 0 0 0 0 0 0 0 0 0 0 0 0 0 0 0 0 0 0 0 0 0 0 0 0
0 0 0 0 0 0 0 0 0 0 0 0 0 0 0 0 0 0 0 0 0 0 0 0 0 0 0 0 0 0 0 0 0 0 0 0 0 0 0 0 0 0 0 0
0 0 0 0 0 0 0 0 0 0 0 0 0 0 0 0 0 0 0 0 0 0 0 0 0 0 0 0 0 0 0 0 0 0 0 0 0 0 0 0 0 0 0 0
0 0 0 0 0 0 0 0 0 0 0 0 0 0 0 0 0 0 0 0 0 0 0 0 0 0 0 0 0 0 0 0 0 0 0 0 0 0 0 0 0 0 0 0
0 0 0 0 0 0 0 0 0 0 0 0 0 0 0 0 0 0 0 0 0 0 0 0 0 0 0 0 0 0 0 0 0 0 0 0 0 0 0 0 0 0 0 0
0 0 0 0 0 0 0 0 0 0 0 0 0 0 0 0 0 0 0 0 0 0 0 0 0 0 0 0 0 0 0 0 0 0 0 0 0 0 0 0 0 0 0 0
0 0 0 0 0 0 0 0 0 0 0 0 0 0 0 0 0 0 0 0 0 0 0 0 0 0 0 0 0 0 0 0 0 0 0 0 0 0 0 0 0 0 0 0
0 0 0 0 0 0 0 0 0 0 0 0 0 0 0 0 0 0 0 0 0 0 0 0 0 0 0 0 0 0 0 0 0 0 0 0 0 0 0 0 0 0 0 0
0 0 0 0 0 0 0 0 0 0 0 0 0 0 0 0 0 0 0 0 0 0 0 0 0 0 0 0 0 0 0 0 0 0 0 0 0 0 0 0 0 0 0 0
0 0 0 0 0 0 0 0 0 0 0 0 0 0 0 0 0 0 0 0 0 0 0 0 0 0 0 0 0 0 0 0 0 0 0 0 0 0 0 0 0 0 0 0
0 0 0 0 0 0 0 0 0 0 0 0 0 0 0 0 0 0 0 0 0 0 0 0 0 0 0 0 0 0 0 0 0 0 0 0 0 0 0 0 0 0 0 0
Wind_Speed
1 1 3 3 2 3 4 5 5 1 1 4 5 7 9 10 11 11 11 11 10 9 9 8 7 7 6 6 5 5 5 6 6 6 6 6 6 6 6 6 7 7 7 7
4 4 4 3 1 1 1 1 0 2 4 6 7 8 9 10 11 11 11 11 10 10 10 9 8 7 7 6 6 5 6 6 6 6 6 6 6 6 6 6 7 7 7 8
5 6 6 3 3 2 2 2 2 2 4 6 6 7 8 9 10 10 11 12 11 10 9 8 8 7 7 6 6 6 6 6 5 6 6 5 5 6 6 6 7 7 7 8
3 6 5 6 4 3 3 4 4 5 6 6 6 6 6 7 9 10 11 11 11 10 10 9 8 7 6 7 6 6 6 6 6 6 6 5 6 6 6 5 6 6 6 7
3 3 4 6 2 1 1 3 4 5 7 7 9 8 6 5 7 9 10 10 10 10 10 9 9 8 7 7 6 6 6 6 6 5 5 5 6 5 5 5 5 5 6 6
3 3 1 5 4 2 4 4 5 5 6 7 7 4 6 7 7 9 9 9 10 10 10 9 8 8 7 7 7 6 6 6 5 5 5 5 5 4 4 4 4 4 6 6
3 1 4 5 2 3 3 5 4 4 5 5 2 5 8 9 9 9 10 11 11 10 9 8 8 7 7 7 7 6 6 5 5 4 4 5 4 3 3 3 3 4 4 4
2 2 4 4 1 3 5 4 4 5 5 5 7 9 10 10 10 11 11 12 11 10 9 8 7 7 7 6 6 6 6 5 4 4 3 4 3 3 2 2 3 3 3 3
5 5 6 4 5 5 3 4 4 5 6 7 8 9 10 10 10 11 11 11 10 10 9 8 7 7 7 7 6 6 6 5 4 4 3 2 2 2 2 1 1 2 2 3
4 6 5 5 5 4 4 4 5 6 7 7 8 10 10 10 10 10 11 10 10 10 9 8 7 7 6 7 6 5 5 5 4 4 3 3 1 1 1 1 1 1 2 2
5 6 5 5 5 5 5 6 7 7 6 7 10 10 11 10 10 10 10 10 9 9 8 9 8 7 7 6 5 5 5 5 4 4 3 3 2 2 2 3 4 4 3 2
3 3 3 5 4 5 6 7 7 7 8 8 9 10 11 10 10 10 10 10 9 9 9 9 8 8 7 6 6 5 5 4 3 3 3 2 3 3 2 1 2 0 3 5
5 5 7 7 6 5 6 7 7 7 8 8 8 10 10 10 10 10 10 10 10 9 9 9 8 8 7 7 6 5 4 3 3 3 3 2 2 2 3 4 5 4 4 4
7 6 7 6 6 6 7 8 7 7 8 8 9 10 10 10 10 10 10 10 10 9 9 9 8 8 8 7 6 5 5 4 3 2 2 2 1 1 1 1 3 4 7 8
5 4 7 7 7 7 8 8 8 8 8 9 9 9 10 10 10 10 10 10 9 9 9 9 8 8 7 7 7 6 5 4 3 2 2 2 2 2 1 1 1 1 3 6
7 7 7 7 7 8 8 8 8 8 8 9 9 9 10 10 9 9 9 10 10 10 9 8 8 8 8 7 7 6 5 2 3 4 4 3 3 3 2 2 2 2 2 2
7 7 7 7 7 7 7 7 7 8 8 9 9 10 9 10 9 9 9 9 9 8 8 8 8 8 8 8 7 6 5 6 7 6 5 4 3 3 3 3 3 3 3 1
4 5 5 6 7 7 7 7 7 8 8 9 10 10 10 10 10 9 9 9 9 8 8 8 8 8 8 8 7 6 5 5 6 6 5 4 4 4 4 4 4 5 4 4
5 6 6 6 6 6 7 7 7 7 8 9 10 10 10 10 9 9 9 9 9 9 9 9 8 9 9 8 6 7 6 6 6 6 6 5 6 7 6 6 6 6 6 5
6 6 6 7 6 6 6 7 7 7 8 9 9 9 9 9 9 9 10 9 8 7 8 9 10 10 10 9 9 8 8 8 7 7 7 7 7 7 7 7 7 7 7 7
7 7 7 7 7 6 6 7 7 7 8 9 9 9 9 9 9 9 9 8 8 8 8 9 9 9 9 8 10 10 9 8 8 8 7 7 7 8 8 8 8 8 8 8
6 6 6 6 6 6 6 6 6 7 8 8 9 9 9 9 10 9 10 7 6 8 8 9 10 9 8 8 10 10 10 10 9 8 8 8 8 8 9 9 9 8 8 9
6 6 6 6 6 6 6 6 6 7 7 8 8 9 9 8 7 8 8 7 8 9 9 8 7 8 10 10 10 10 11 11 10 10 9 9 9 9 9 10 10 9 9 9
6 6 5 5 5 6 6 6 6 6 6 7 7 8 7 7 7 7 6 6 7 8 9 6 8 10 11 10 10 11 10 10 11 11 11 10 10 10 10 10 10 10 10 12
5 5 5 5 5 5 5 6 6 6 7 6 7 8 7 6 6 6 5 6 8 9 9 9 11 13 12 11 11 11 11 11 10 10 10 10 11 11 10 10 11 11 11 11
5 4 4 3 3 3 3 4 4 4 4 5 5 6 6 6 6 6 6 7 9 9 9 8 10 12 12 12 12 12 12 11 11 12 13 12 13 13 12 11 14 12 12 12
5 4 4 4 4 4 3 3 4 4 4 4 4 4 5 6 6 6 7 7 7 8 9 8 8 9 10 11 11 11 11 11 11 11 11 12 12 12 12 14 12 12 12 12
Wind_Direction
131 127 183 185 207 233 255 285 282 292 125 120 134 140 141 143 145 147 149 151 152 149 142 138 134 133 127 123 125 118 110 103 96 93 88 81 74 68 60 53 52 51 52 50
154 148 149 138 125 190 243 311 294 129 95 94 115 127 138 147 153 155 156 157 155 149 145 146 144 142 136 131 131 126 114 104 101 100 92 83 77 71 65 57 51 52 53 54
178 172 198 150 44 17 77 41 352 34 88 124 133 141 153 158 161 159 157 157 156 153 150 147 143 142 139 133 135 128 117 111 108 103 95 89 84 75 68 64 58 55 54 57
189 202 214 84 57 38 85 69 55 77 102 120 123 124 135 156 161 158 157 157 156 152 147 144 141 141 137 135 136 129 122 115 108 104 99 94 87 77 70 69 63 58 54 56
217 205 136 125 113 351 306 94 79 104 115 118 120 125 125 140 152 152 154 153 149 147 143 142 143 143 142 140 139 135 127 118 111 109 106 97 87 82 75 73 71 70 63 57
230 241 164 88 56 343 264 143 103 117 130 138 162 173 128 135 137 137 141 140 140 141 141 141 144 151 150 145 143 134 125 118 112 107 101 94 89 86 86 85 81 79 73 59
235 228 84 55 15 265 268 73 97 123 136 152 134 66 116 135 134 135 138 138 141 143 141 142 148 151 147 143 136 129 127 121 113 111 110 104 101 94 93 93 83 78 81 78
249 218 91 46 37 13 41 78 108 118 128 120 101 110 127 136 138 140 141 143 144 143 141 144 152 156 147 136 130 133 134 129 125 126 119 112 115 105 96 102 127 118 109 97
26 52 70 58 57 56 67 104 114 123 125 125 127 132 136 140 142 143 143 143 145 145 142 146 156 158 144 137 140 142 140 135 134 133 121 118 130 133 147 161 144 108 113 101
106 101 98 90 81 79 84 98 113 123 133 141 138 138 140 141 142 144 145 145 148 150 149 148 150 149 143 142 146 149 147 146 148 148 149 143 186 144 92 47 57 98 91 89
117 122 127 99 83 89 95 106 114 121 132 138 138 143 143 144 146 147 147 148 153 154 149 148 149 147 147 149 157 154 150 152 156 149 138 150 128 40 11 45 20 347 12 38
87 114 110 104 98 108 115 117 120 126 127 135 142 145 147 147 148 148 149 151 153 154 153 151 151 151 152 157 162 161 163 164 160 153 151 161 147 141 106 22 105 87 336 335
86 97 97 109 111 115 117 116 122 128 132 137 141 147 148 146 147 149 152 155 156 157 156 155 157 158 160 165 167 169 163 158 167 160 164 173 164 168 153 168 201 218 231 250
114 120 118 118 113 116 118 118 118 122 130 136 139 145 145 146 149 153 156 156 157 158 159 162 166 163 164 168 172 175 175 164 195 181 184 187 188 210 215 196 175 177 194 213
123 113 114 119 121 123 128 129 128 130 134 137 141 146 150 151 153 155 154 157 161 166 169 171 172 170 174 176 179 187 195 183 194 198 211 213 226 240 239 242 246 203 174 177
130 124 128 132 133 137 143 145 142 141 144 146 149 153 155 155 154 155 159 166 172 176 176 179 180 178 181 184 188 193 194 183 234 232 227 226 229 239 239 237 239 236 226 203
148 148 149 148 147 149 150 151 146 148 151 154 157 157 158 159 161 164 171 177 182 182 182 186 187 185 187 192 205 210 200 180 199 234 236 235 238 244 245 246 246 246 243 164
148 151 154 155 155 155 155 156 155 155 157 159 160 164 169 172 174 174 178 180 183 189 192 194 193 193 196 198 209 225 219 209 210 225 230 232 244 246 245 246 248 252 251 204
147 147 152 156 157 158 159 160 162 162 161 165 170 175 178 180 181 180 182 188 192 196 196 196 191 206 206 205 214 221 228 227 225 228 234 226 239 246 249 253 255 256 259 259
145 145 148 152 157 158 158 159 162 164 166 172 176 178 181 184 186 187 190 199 206 204 189 187 193 207 211 206 219 230 227 229 232 232 234 237 240 245 249 254 257 258 260 261
151 149 149 149 151 157 159 163 167 171 173 180 186 187 186 188 191 193 199 206 204 204 197 185 204 211 213 205 209 232 232 232 236 237 239 243 246 250 254 257 259 259 260 261
151 151 154 152 153 154 157 166 173 176 176 185 193 193 191 192 197 201 211 220 203 184 200 203 210 210 207 210 222 230 233 235 239 241 243 248 251 252 254 257 258 259 260 261
146 148 156 162 162 158 160 170 176 180 184 190 195 198 200 202 204 207 209 205 204 189 209 217 205 182 189 219 234 236 237 239 242 245 246 248 252 254 255 257 258 260 262 263
150 153 155 157 162 167 170 175 179 187 192 198 199 200 204 205 209 219 224 189 194 188 218 208 181 186 203 230 236 238 239 241 243 247 250 251 252 253 255 256 258 259 260 262
150 154 157 166 176 177 173 179 184 191 200 201 200 198 206 215 218 213 216 201 184 195 222 204 192 199 215 232 236 239 242 244 248 253 254 254 256 256 256 257 258 260 261 262
154 166 163 181 180 187 190 195 201 199 204 208 207 202 204 208 218 218 216 216 206 208 228 222 204 204 223 233 237 240 244 244 240 243 250 254 257 258 260 261 263 262 264 264
169 170 180 191 190 201 209 212 218 216 215 218 221 215 215 217 218 220 224 226 219 215 227 233 230 224 228 235 240 242 244 247 250 251 253 253 254 257 258 259 261 263 265 266